Total_Precipitation_Accumulation
0.10 0.28 0.48 0.61 1.01 0.65 0.19 0.13 0.09 0.09 0.08 0.04 0.03 0.04 0.08 0.15 0.32 0.66 0.44 0.16 0.08 0.09 0.20 0.27 0.42 0.44 0.39 0.35 0.44 0.55 0.66 0.78 0.79 0.73 0.64 0.45 0.38 0.29 0.28 0.27 0.28 0.27 0.23 0.28 0.31 0.36 0.35 0.31 0.27
0.21 0.44 0.62 1.09 1.10 0.38 0.21 0.16 0.15 0.12 0.09 0.07 0.03 0.02 0.04 0.07 0.11 0.27 0.37 0.28 0.10 0.06 0.15 0.25 0.38 0.47 0.45 0.49 0.61 0.67 0.72 0.76 0.71 0.61 0.49 0.41 0.37 0.33 0.33 0.37 0.37 0.30 0.25 0.28 0.31 0.41 0.37 0.29 0.26
0.25 0.41 0.71 1.08 0.48 0.23 0.23 0.19 0.16 0.11 0.07 0.06 0.04 0.02 0.04 0.10 0.16 0.29 0.34 0.22 0.12 0.10 0.18 0.30 0.43 0.49 0.51 0.56 0.65 0.73 0.74 0.69 0.63 0.57 0.46 0.40 0.36 0.33 0.35 0.38 0.40 0.34 0.25 0.22 0.27 0.31 0.28 0.26 0.20
0.32 0.60 0.85 0.66 0.24 0.15 0.17 0.19 0.14 0.09 0.05 0.03 0.03 0.04 0.08 0.11 0.21 0.33 0.31 0.25 0.23 0.24 0.29 0.33 0.48 0.51 0.50 0.62 0.69 0.72 0.64 0.57 0.60 0.58 0.49 0.42 0.33 0.32 0.36 0.34 0.30 0.23 0.19 0.19 0.23 0.26 0.25 0.23 0.15
0.38 0.81 0.98 0.54 0.31 0.22 0.18 0.13 0.08 0.07 0.06 0.04 0.04 0.08 0.18 0.18 0.23 0.30 0.33 0.32 0.34 0.41 0.48 0.44 0.54 0.51 0.50 0.63 0.72 0.73 0.74 0.70 0.71 0.69 0.60 0.53 0.42 0.36 0.36 0.29 0.20 0.13 0.15 0.20 0.31 0.34 0.23 0.19 0.15
0.63 1.04 1.36 0.79 0.45 0.31 0.23 0.15 0.09 0.07 0.06 0.05 0.07 0.15 0.22 0.26 0.30 0.37 0.40 0.45 0.48 0.49 0.49 0.50 0.61 0.58 0.57 0.65 0.69 0.65 0.69 0.81 0.83 0.75 0.72 0.86 0.64 0.47 0.34 0.25 0.17 0.12 0.13 0.17 0.25 0.29 0.21 0.18 0.22
0.74 1.19 1.14 0.65 0.44 0.48 0.30 0.15 0.10 0.10 0.10 0.11 0.10 0.21 0.27 0.34 0.29 0.33 0.38 0.43 0.45 0.44 0.46 0.47 0.54 0.61 0.63 0.71 0.79 0.78 0.81 0.90 0.94 0.79 0.78 0.85 0.59 0.38 0.29 0.25 0.20 0.16 0.14 0.16 0.17 0.20 0.21 0.21 0.25
0.32 0.66 0.79 0.63 0.49 0.48 0.27 0.11 0.07 0.07 0.08 0.10 0.11 0.19 0.38 0.42 0.31 0.37 0.41 0.46 0.48 0.50 0.51 0.47 0.52 0.64 0.77 0.79 0.78 0.87 0.94 0.92 0.98 0.86 0.81 0.74 0.47 0.32 0.30 0.23 0.21 0.20 0.19 0.21 0.21 0.22 0.21 0.19 0.21
0.31 0.57 0.89 0.85 0.53 0.37 0.24 0.16 0.09 0.07 0.08 0.09 0.09 0.12 0.21 0.28 0.32 0.43 0.50 0.50 0.55 0.56 0.58 0.55 0.49 0.52 0.67 0.79 0.73 0.93 1.03 1.00 0.93 0.89 0.88 0.76 0.48 0.38 0.37 0.31 0.32 0.29 0.29 0.29 0.28 0.27 0.21 0.14 0.13
0.43 0.70 0.90 0.66 0.42 0.26 0.20 0.15 0.11 0.10 0.13 0.11 0.08 0.11 0.16 0.24 0.33 0.42 0.45 0.50 0.53 0.54 0.49 0.50 0.48 0.47 0.49 0.57 0.83 1.18 1.04 0.95 0.79 0.82 0.79 0.79 0.71 0.61 0.44 0.43 0.49 0.48 0.43 0.39 0.34 0.31 0.21 0.10 0.07
0.41 0.46 0.50 0.52 0.31 0.18 0.13 0.12 0.11 0.10 0.15 0.12 0.11 0.13 0.17 0.23 0.29 0.30 0.35 0.40 0.44 0.48 0.47 0.44 0.42 0.41 0.44 0.59 0.72 0.94 1.02 1.00 0.87 0.75 0.75 0.83 0.77 0.64 0.50 0.43 0.46 0.50 0.50 0.43 0.39 0.32 0.18 0.11 0.10
0.38 0.28 0.24 0.27 0.18 0.14 0.14 0.12 0.11 0.11 0.13 0.11 0.12 0.15 0.21 0.26 0.28 0.27 0.31 0.39 0.44 0.47 0.51 0.50 0.42 0.42 0.45 0.50 0.50 0.59 0.67 0.72 0.70 0.63 0.64 0.77 0.72 0.65 0.61 0.58 0.51 0.51 0.50 0.53 0.49 0.41 0.29 0.21 0.16
0.28 0.20 0.17 0.17 0.16 0.15 0.14 0.13 0.11 0.11 0.11 0.10 0.14 0.20 0.26 0.29 0.28 0.29 0.31 0.34 0.39 0.43 0.48 0.50 0.47 0.43 0.43 0.44 0.44 0.43 0.54 0.58 0.60 0.65 0.62 0.64 0.67 0.65 0.62 0.58 0.62 0.62 0.57 0.58 0.55 0.45 0.36 0.29 0.21
0.22 0.17 0.17 0.14 0.14 0.17 0.15 0.12 0.11 0.14 0.12 0.11 0.13 0.18 0.20 0.26 0.30 0.31 0.32 0.33 0.34 0.36 0.44 0.46 0.47 0.49 0.47 0.45 0.45 0.47 0.54 0.59 0.59 0.53 0.52 0.57 0.58 0.59 0.66 0.70 0.69 0.70 0.69 0.75 0.70 0.48 0.44 0.41 0.29
0.18 0.18 0.18 0.15 0.15 0.18 0.15 0.14 0.14 0.17 0.14 0.13 0.12 0.13 0.15 0.19 0.23 0.29 0.33 0.33 0.34 0.38 0.44 0.46 0.49 0.55 0.55 0.53 0.55 0.51 0.58 0.60 0.59 0.61 0.60 0.64 0.65 0.67 0.74 0.81 0.81 0.80 0.75 0.77 0.98 0.81 0.53 0.46 0.38
0.25 0.27 0.31 0.20 0.19 0.21 0.20 0.18 0.16 0.20 0.18 0.17 0.16 0.15 0.15 0.17 0.20 0.22 0.25 0.30 0.33 0.41 0.50 0.57 0.51 0.54 0.60 0.62 0.67 0.68 0.70 0.72 0.69 0.69 0.71 0.72 0.76 0.78 0.85 0.88 0.80 0.86 0.90 0.91 1.05 1.08 0.74 0.53 0.48
0.26 0.32 0.31 0.23 0.19 0.19 0.20 0.17 0.17 0.20 0.17 0.16 0.17 0.16 0.15 0.15 0.16 0.16 0.17 0.21 0.29 0.41 0.53 0.61 0.58 0.58 0.68 0.77 0.86 0.87 0.85 0.86 0.84 0.85 0.81 0.84 0.87 0.93 0.98 0.97 0.94 0.95 0.95 1.01 1.00 1.16 1.08 0.83 0.66
0.34 0.27 0.20 0.18 0.17 0.17 0.17 0.16 0.16 0.19 0.17 0.15 0.14 0.14 0.13 0.12 0.15 0.15 0.13 0.14 0.20 0.32 0.45 0.59 0.72 0.83 0.91 0.98 1.07 1.13 1.07 1.01 1.05 1.09 1.06 1.07 1.12 1.08 1.12 1.13 1.16 1.24 1.20 1.14 1.05 1.17 1.22 1.00 0.90
0.27 0.23 0.18 0.13 0.13 0.11 0.10 0.11 0.13 0.16 0.17 0.15 0.12 0.13 0.12 0.10 0.10 0.09 0.09 0.14 0.20 0.29 0.38 0.54 0.88 1.30 1.49 1.40 1.38 1.48 1.60 1.60 1.52 1.50 1.48 1.53 1.52 1.51 1.54 1.50 1.46 1.40 1.33 1.37 1.34 1.51 1.79 1.33 1.08
0.25 0.27 0.23 0.16 0.12 0.09 0.07 0.07 0.08 0.10 0.12 0.13 0.12 0.13 0.13 0.11 0.08 0.06 0.08 0.11 0.17 0.32 0.47 0.59 0.85 1.29 1.50 1.61 1.73 1.95 2.16 2.08 1.97 1.95 1.91 1.98 1.99 2.13 2.11 2.08 2.02 1.88 1.84 1.83 1.74 1.76 1.99 1.63 1.37
0.28 0.29 0.25 0.20 0.12 0.09 0.07 0.06 0.07 0.09 0.09 0.09 0.11 0.14 0.14 0.12 0.11 0.11 0.10 0.14 0.18 0.27 0.39 0.53 0.71 1.00 1.32 1.59 1.88 2.20 2.44 2.44 2.34 2.18 2.15 2.21 2.26 2.40 2.52 2.51 2.52 2.31 2.14 2.12 2.05 1.98 2.04 2.05 1.78
0.21 0.15 0.11 0.09 0.10 0.09 0.07 0.10 0.10 0.12 0.13 0.12 0.13 0.13 0.15 0.15 0.14 0.16 0.16 0.16 0.18 0.23 0.30 0.43 0.61 0.87 1.11 1.36 1.79 2.24 2.56 2.68 2.61 2.50 2.44 2.41 2.42 2.46 2.65 2.67 2.75 2.58 2.44 2.35 2.27 2.07 2.11 2.35 2.21
0.11 0.07 0.06 0.07 0.08 0.07 0.06 0.09 0.12 0.13 0.16 0.16 0.16 0.16 0.16 0.16 0.17 0.20 0.20 0.22 0.24 0.22 0.26 0.38 0.54 0.78 1.02 1.25 1.62 2.05 2.35 2.59 2.76 2.59 2.45 2.47 2.48 2.49 2.61 2.74 2.81 2.67 2.54 2.46 2.56 2.41 2.32 2.20 2.10
0.06 0.06 0.05 0.05 0.07 0.07 0.05 0.11 0.19 0.18 0.17 0.15 0.14 0.15 0.17 0.19 0.24 0.27 0.35 0.39 0.39 0.33 0.36 0.45 0.54 0.68 0.84 0.99 1.23 1.48 1.83 2.13 2.49 2.48 2.41 2.52 2.49 2.37 2.29 2.46 2.64 2.58 2.58 2.58 2.64 2.65 2.59 2.52 2.47
0.03 0.08 0.12 0.12 0.13 0.11 0.08 0.18 0.29 0.25 0.19 0.18 0.18 0.18 0.20 0.22 0.26 0.34 0.47 0.51 0.53 0.46 0.43 0.45 0.55 0.61 0.67 0.78 0.91 1.07 1.34 1.55 1.93 2.25 2.23 2.14 2.17 2.18 2.18 2.23 2.24 2.24 2.34 2.50 2.73 2.67 2.53 2.49 2.54
0.04 0.09 0.17 0.20 0.19 0.19 0.19 0.34 0.42 0.31 0.23 0.21 0.19 0.20 0.23 0.27 0.34 0.50 0.65 0.68 0.68 0.60 0.53 0.52 0.60 0.63 0.65 0.70 0.73 0.83 0.99 1.12 1.30 1.53 1.65 1.68 1.72 1.90 1.96 2.07 2.06 2.06 2.13 2.24 2.38 2.41 2.38 2.32 2.29
0.07 0.10 0.13 0.20 0.18 0.20 0.30 0.46 0.43 0.27 0.25 0.27 0.27 0.28 0.37 0.47 0.55 0.67 0.81 0.83 0.75 0.69 0.61 0.60 0.64 0.73 0.73 0.72 0.74 0.83 0.89 0.93 1.05 1.09 1.24 1.42 1.45 1.47 1.54 1.62 1.74 1.87 1.95 2.03 2.18 2.24 2.22 2.23 2.19
0.06 0.10 0.17 0.28 0.33 0.31 0.33 0.45 0.47 0.37 0.37 0.37 0.42 0.44 0.55 0.66 0.74 0.82 0.95 0.97 0.83 0.71 0.61 0.59 0.61 0.73 0.92 1.04 0.99 0.93 1.00 1.07 1.30 1.33 1.17 1.17 1.34 1.38 1.38 1.39 1.47 1.66 1.81 1.88 1.94 2.02 2.11 2.10 2.11
0.14 0.21 0.27 0.35 0.38 0.49 0.58 0.63 0.58 0.57 0.58 0.59 0.62 0.65 0.74 0.86 0.87 0.84 0.91 0.98 0.87 0.68 0.61 0.56 0.56 0.67 0.83 0.87 0.93 0.92 0.97 1.06 1.35 1.56 1.50 1.32 1.31 1.34 1.30 1.20 1.26 1.41 1.55 1.64 1.73 1.79 1.82 1.83 1.94
0.23 0.34 0.50 0.69 0.66 0.62 0.75 0.79 0.64 0.58 0.62 0.64 0.64 0.63 0.67 0.79 0.80 0.81 0.83 0.80 0.70 0.56 0.49 0.47 0.48 0.59 0.71 0.70 0.77 0.84 0.85 0.94 1.07 1.18 1.21 1.14 1.06 1.02 1.06 1.09 1.09 1.17 1.33 1.41 1.43 1.48 1.54 1.59 1.68